Price, UT

9:47 PM MST on November 19, 2017 (GMT -0700)
Carbon County

Weather History for KPUC - December, 2012

Change the Weather History Date:

Friday, December 28, 2012

  Actual Average Record
Temperature  
Mean Temperature 16 °F -  
Max Temperature 23 °F 33 °F 57 °F (1980)
Min Temperature 8 °F 15 °F -3 °F (1987)
Degree Days  
Heating Degree Days 50    
Moisture  
Dew Point 5 °F    
Average Humidity 60    
Maximum Humidity 70    
Minimum Humidity 50    
Precipitation  
Precipitation 0.00 in - - ()
Sea Level Pressure  
Sea Level Pressure 30.25 in    
Wind  
Wind Speed 8 mph (NNW)    
Max Wind Speed 17 mph    
Max Gust Speed 24 mph    
Visibility 10 miles    
Events      
Averages and records for this station are not official NWS values.
T = Trace of Precipitation, MM = Missing Value Source: NWS Daily Summary

Daily Weather History Graph

Daily Weather History Graph

Search for Another Location

Airport or City:

Trip Planner

Search our weather history database for the weather conditions in past years. The results will help you decide how hot, cold, wet, or windy it might be!

Date:

Astronomy

Dec. 28, 2012 Rise Set
Actual Time 7:43 AM MST 5:06 PM MST
Civil Twilight 7:12 AM MST 5:37 PM MST
Nautical Twilight 6:38 AM MST 6:10 PM MST
Astronomical Twilight 6:06 AM MST 6:43 PM MST
Moon 5:46 PM MST (12/28) 7:39 AM MST (12/28)
Length of Visible Light 10h 24m
Length of Day
9h 23m
Full, 100% of the Moon is Illuminated
Dec 28
Full
Jan 4
Last Quarter
Jan 11
New
Jan 18
First Quarter
Jan 26
Full

Hourly Weather History & Observations

Time (MST) Temp. Windchill Dew Point Humidity Pressure Visibility Wind Dir Wind Speed Gust Speed Precip Events Conditions
12:53 AM 21.9 °F 13.4 °F 6.1 °F 51% 30.11 in 10.0 mi WNW 6.9 mph 18.4 mph N/A   Clear
1:53 AM 23.0 °F 9.2 °F 7.0 °F 50% 30.10 in 10.0 mi NW 17.3 mph 24.2 mph N/A   Clear
2:53 AM 21.9 °F 10.4 °F 7.0 °F 53% 30.15 in 10.0 mi NW 11.5 mph - N/A   Clear
3:53 AM 21.2 °F 8.9 °F 8.6 °F 58% 29.98 in 10.0 mi NW 12.7 mph 20.7 mph N/A   Clear
4:53 AM 21.9 °F 10.4 °F 7.0 °F 53% 30.16 in 10.0 mi NW 11.5 mph 19.6 mph N/A   Partly Cloudy
5:53 AM 21.0 °F 16.2 °F 6.1 °F 53% 30.17 in 10.0 mi Variable 3.5 mph - N/A   Clear
6:53 AM 15.1 °F - 3.9 °F 61% 30.22 in 10.0 mi Calm Calm - N/A   Mostly Cloudy
7:53 AM 10.9 °F - 3.0 °F 70% 30.25 in 10.0 mi Calm Calm - N/A   Partly Cloudy
8:53 AM 21.0 °F 14.6 °F 7.0 °F 55% 30.23 in 10.0 mi NW 4.6 mph - N/A   Mostly Cloudy
9:53 AM 19.0 °F 10.0 °F 7.0 °F 59% 30.27 in 10.0 mi West 6.9 mph - N/A   Clear
10:53 AM 21.0 °F 11.4 °F 7.0 °F 55% 30.28 in 10.0 mi WNW 8.1 mph - N/A   Clear
11:53 AM 21.9 °F 15.7 °F 8.1 °F 55% 30.26 in 10.0 mi West 4.6 mph - N/A   Clear
12:53 PM 19.0 °F 13.9 °F 7.0 °F 59% 30.25 in 10.0 mi South 3.5 mph - N/A   Clear
1:53 PM 21.9 °F 15.7 °F 9.0 °F 58% 30.23 in 10.0 mi South 4.6 mph - N/A   Clear
2:53 PM 23.0 °F 17.0 °F 9.0 °F 55% 30.24 in 10.0 mi East 4.6 mph - N/A   Clear
3:53 PM 23.0 °F 15.8 °F 9.0 °F 55% 30.27 in 10.0 mi East 5.8 mph - N/A   Clear
4:53 PM 19.4 °F 11.5 °F 8.6 °F 63% 30.10 in 10.0 mi East 5.8 mph - N/A   Clear
5:53 PM 15.8 °F 5.1 °F 6.8 °F 68% 30.11 in 10.0 mi ENE 8.1 mph - N/A   Clear
6:53 PM 9.0 °F -3.2 °F 1.0 °F 70% 30.40 in 10.0 mi North 8.1 mph - N/A   Clear
7:53 PM 9.0 °F -5.1 °F 1.0 °F 70% 30.43 in 10.0 mi NNE 10.4 mph - N/A   Clear
8:53 PM 8.1 °F -2.0 °F -0.0 °F 70% 30.40 in 10.0 mi North 5.8 mph - N/A   Clear
9:53 PM 8.1 °F -4.3 °F -0.0 °F 70% 30.42 in 10.0 mi North 8.1 mph - N/A   Clear
10:53 PM 8.1 °F -5.3 °F -0.0 °F 70% 30.43 in 10.0 mi North 9.2 mph - N/A   Clear
11:53 PM 9.0 °F -4.2 °F 1.0 °F 70% 30.43 in 10.0 mi NNE 9.2 mph - N/A   Clear